Location: Unspecified
(49.8670°N, 0.0000°E)
Time: 18:57:34
(UTC+00:00)

ISS - Pass Details

Date: 26 May 2019
Orbit: 408 x 418 km, 51.6° (Epoch: 17 June)

Event Time Altitude Azimuth Distance (km) Brightness Sun altitude
Rises 22:08:06 0° 286° (WNW) 2,359 0.7 -14.9°
Reaches altitude 10° 22:10:11 10° 286° (WNW) 1,497 -0.4 -15.1°
Maximum altitude 22:13:33 89° 4° (N) 423 -3.8 -15.3°
Enters shadow 22:15:24 25° 107° (ESE) 893 -2.5 -15.4°
